Leadville, CO

3:18 AM MDT on April 27, 2018 (GMT -0600)
Lake County

Weather History for KLXV - August, 2013

Change the Weather History Date:

Sunday, August 4, 2013

  Actual Average Record
Temperature  
Mean Temperature 55 °F -  
Max Temperature 71 °F 69 °F 77 °F (1980)
Min Temperature 38 °F 39 °F 30 °F (1990)
Degree Days  
Heating Degree Days 10 11  
Month to date heating degree days 39 44  
Since 1 June heating degree days 677 860  
Since 1 July heating degree days 306 380  
Cooling Degree Days 0 0  
Month to date cooling degree days 0 0  
Year to date cooling degree days 0 0  
Since 1 June cooling degree days 0 0  
Growing Degree Days 3 (Base 50)    
Moisture  
Dew Point 41 °F    
Average Humidity 62    
Maximum Humidity 93    
Minimum Humidity 31    
Precipitation  
Precipitation 0.01 in 0.06 in 0.64 in (2016)
Month to date precipitation 0.12 0.26  
Year to date precipitation 10.35 7.18  
Sea Level Pressure  
Sea Level Pressure 30.13 in    
Wind  
Wind Speed 6 mph (NNE)    
Max Wind Speed 20 mph    
Max Gust Speed 26 mph    
Visibility 10 miles    
Events Rain , Thunderstorm    
T = Trace of Precipitation, MM = Missing Value Source: NWS Daily Summary

Daily Weather History Graph

Daily Weather History Graph

Search for Another Location

Airport or City:

Astronomy

Aug. 04, 2013 Rise Set
Actual Time 6:08 AM MDT 8:13 PM MDT
Civil Twilight 5:38 AM MDT 8:43 PM MDT
Nautical Twilight 5:02 AM MDT 9:19 PM MDT
Astronomical Twilight 4:23 AM MDT 9:58 PM MDT
Moon 4:12 AM MDT (8/4) 6:38 PM MDT (8/4)
Length of Visible Light 15h 04m
Length of Day
14h 05m
Waning Crescent, 4% of the Moon is Illuminated
Aug 4
Waning Crescent
Aug 6
New
Aug 14
First Quarter
Aug 20
Full
Aug 28
Last Quarter

Hourly Weather History & Observations

Time (MDT) Temp. Windchill Dew Point Humidity Pressure Visibility Wind Dir Wind Speed Gust Speed Precip Events Conditions
12:53 AM 46.9 °F - 42.1 °F 83% 30.02 in 10.0 mi Calm Calm - N/A   Clear
1:53 AM 45.0 °F 43.5 °F 41.0 °F 86% 30.05 in 10.0 mi ENE 3.5 mph - N/A   Clear
2:53 AM 41.0 °F 39.0 °F 39.0 °F 93% 30.11 in 10.0 mi NNE 3.5 mph - N/A   Clear
3:53 AM 41.0 °F 37.1 °F 39.0 °F 93% 30.16 in 10.0 mi ENE 5.8 mph - N/A   Clear
4:53 AM 42.1 °F - 39.9 °F 92% 30.12 in 10.0 mi Calm Calm - N/A   Clear
5:53 AM 37.9 °F 35.5 °F 36.0 °F 93% 30.14 in 10.0 mi North 3.5 mph - N/A   Clear
6:53 AM 42.1 °F 39.2 °F 39.0 °F 89% 30.14 in 10.0 mi NNE 4.6 mph - N/A   Clear
7:53 AM 50.0 °F - 43.0 °F 77% 30.10 in 10.0 mi Calm Calm - N/A   Clear
8:53 AM 55.0 °F - 44.1 °F 67% 30.12 in 10.0 mi Calm Calm - N/A   Clear
9:53 AM 63.0 °F - 43.0 °F 48% 30.04 in 10.0 mi Variable 4.6 mph - N/A   Clear
10:53 AM 64.9 °F - 37.9 °F 37% 30.04 in 10.0 mi Variable 3.5 mph 17.3 mph N/A   Clear
11:53 AM 68.0 °F - 37.9 °F 33% 30.03 in 10.0 mi NNW 6.9 mph - N/A   Mostly Cloudy
12:53 PM 69.1 °F - 37.0 °F 31% 30.00 in 10.0 mi North 17.3 mph 25.3 mph N/A   Clear
1:53 PM 66.9 °F - 36.0 °F 32% 30.01 in 10.0 mi North 10.4 mph 18.4 mph N/A   Mostly Cloudy
2:24 PM 64.4 °F - 35.6 °F 34% 30.52 in 10.0 mi North 13.8 mph 23.0 mph N/A Thunderstorm Thunderstorm
2:53 PM 57.9 °F - 41.0 °F 53% 30.12 in 10.0 mi SSW 15.0 mph 24.2 mph 0.00 in Rain , Thunderstorm Light Thunderstorms and Rain
3:00 PM 55.4 °F - 44.6 °F 67% 30.55 in 10.0 mi SSE 11.5 mph 23.0 mph 0.00 in Rain , Thunderstorm Light Thunderstorms and Rain
3:13 PM 53.6 °F - 46.4 °F 77% 30.54 in 5.0 mi SE 13.8 mph - 0.00 in Rain Light Rain
3:53 PM 60.1 °F - 43.0 °F 53% 30.07 in 10.0 mi Variable 4.6 mph 16.1 mph 0.00 in   Overcast
4:53 PM 60.1 °F - 46.0 °F 60% 30.07 in 10.0 mi South 12.7 mph - N/A   Overcast
5:53 PM 55.9 °F - 46.0 °F 69% 30.16 in 9.0 mi SSW 3.5 mph - 0.01 in Rain Light Rain
6:53 PM 53.1 °F - 44.1 °F 71% 30.16 in 10.0 mi NNW 10.4 mph 19.6 mph 0.00 in   Overcast
7:53 PM 52.0 °F - 44.1 °F 74% 30.12 in 10.0 mi NNW 9.2 mph - 0.00 in   Overcast
8:53 PM 52.0 °F - 43.0 °F 71% 30.09 in 10.0 mi North 6.9 mph - N/A   Overcast
9:53 PM 48.9 °F - 45.0 °F 86% 30.07 in 10.0 mi WNW 3.5 mph - 0.00 in   Mostly Cloudy
10:53 PM 48.0 °F - 43.0 °F 83% 30.05 in 10.0 mi ESE 4.6 mph - N/A   Overcast
11:53 PM 46.9 °F - 42.1 °F 83% 30.03 in 10.0 mi Calm Calm - N/A   Overcast